Weather History for King Cove AP, King Cove, AK, AK

Change the Weather History Date:

Saturday, February 22, 2014

  Actual Average Record
Temperature  
Mean Temperature 36 °F -  
Max Temperature 39 °F - - ()
Min Temperature 32 °F - - ()
Degree Days  
Heating Degree Days 30    
Moisture  
Dew Point 33 °F    
Average Humidity 91    
Maximum Humidity 100    
Minimum Humidity 76    
Precipitation  
Precipitation 0.29 in - - ()
Sea Level Pressure  
Sea Level Pressure 29.28 in    
Wind  
Wind Speed 10 mph (WNW)    
Max Wind Speed 22 mph    
Max Gust Speed 26 mph    
Visibility 5 miles    
Events Rain , Snow    
T = Trace of Precipitation, MM = Missing Value Source: NWS Daily Summary

Daily Weather History Graph

Daily Weather History Graph

Search for Another Location

Airport:

Trip Planner

Search our weather history database for the weather conditions in past years. The results will help you decide how hot, cold, wet, or windy it might be!

Date:

Astronomy

Feb. 22, 2014 Rise Set
Actual Time 8:55 AM AKST 7:10 PM AKST
Civil Twilight 8:18 AM AKST 7:47 PM AKST
Nautical Twilight 7:36 AM AKST 8:30 PM AKST
Astronomical Twilight 6:54 AM AKST 9:12 PM AKST
Moon 3:29 AM AKST (2/22) 12:03 PM AKST (2/22)
Length of Visible Light 11h 29m
Length of Day
10h 15m
Waning Gibbous, 48% of the Moon is Illuminated
Feb 22
Waning Gibbous
Feb 28
New
Mar 8
First Quarter
Mar 16
Full
Mar 23
Last Quarter

Hourly Weather History & Observations

Time (AKST) Temp. Windchill Dew Point Humidity Pressure Visibility Wind Dir Wind Speed Gust Speed Precip Events Conditions
12:03 AM 39.2 °F 31.6 °F 37.4 °F 93% 29.37 in 1.8 mi ESE 12.7 mph - N/A   Overcast
12:35 AM 39.2 °F 32.0 °F 37.4 °F 93% 29.38 in 2.5 mi ESE 11.5 mph - 0.01 in   Overcast
12:43 AM 39.2 °F 31.6 °F 37.4 °F 93% 29.38 in 2.5 mi ESE 12.7 mph 18.4 mph 0.01 in   Overcast
12:56 AM 38.8 °F 31.2 °F 36.0 °F 89% 29.40 in 6.0 mi ESE 12.7 mph 21.9 mph 0.01 in   Overcast
1:56 AM 37.9 °F 34.4 °F 34.9 °F 89% 29.42 in 10.0 mi ENE 4.6 mph - 0.00 in   Overcast
3:56 AM 36.9 °F - 34.9 °F 93% 29.46 in 7.0 mi Calm Calm - N/A   Overcast
4:56 AM 36.9 °F - 34.0 °F 89% 29.46 in 10.0 mi Calm Calm - N/A   Overcast
5:56 AM 36.0 °F 32.1 °F 32.9 °F 89% 29.46 in 10.0 mi NE 4.6 mph - N/A   Overcast
6:56 AM 36.9 °F - 32.9 °F 86% 29.47 in 10.0 mi Calm Calm - N/A   Overcast
7:56 AM 36.0 °F - 32.0 °F 86% 29.47 in 10.0 mi Calm Calm - N/A   Overcast
8:56 AM 36.9 °F 32.2 °F 32.0 °F 83% 29.47 in 10.0 mi NE 5.8 mph - N/A   Overcast
9:56 AM 36.0 °F 30.3 °F 32.0 °F 86% 29.44 in 10.0 mi SE 6.9 mph - N/A   Scattered Clouds
10:26 AM 37.4 °F 32.1 °F 32.0 °F 81% 29.42 in 10.0 mi SE 6.9 mph - N/A   Mostly Cloudy
10:56 AM 38.8 °F 34.6 °F 32.0 °F 76% 29.42 in 10.0 mi East 5.8 mph - N/A   Overcast
11:56 AM 39.9 °F 32.5 °F 36.0 °F 86% 29.40 in 10.0 mi ENE 12.7 mph 20.7 mph N/A   Overcast
12:56 PM 38.8 °F 33.2 °F 34.9 °F 86% 29.38 in 9.0 mi ESE 8.1 mph - 0.00 in Rain Light Rain
1:56 PM 38.8 °F 33.2 °F 34.9 °F 86% 29.34 in 5.0 mi East 8.1 mph - 0.01 in Rain Light Rain
2:56 PM 37.4 °F - 33.8 °F 87% 29.30 in 8.0 mi Calm Calm - N/A Rain Light Rain
3:56 PM 36.0 °F 29.0 °F 32.9 °F 89% 29.26 in 4.0 mi WNW 9.2 mph - 0.04 in Snow Light Snow
4:09 PM 35.6 °F 28.0 °F 33.8 °F 93% 29.25 in 3.0 mi WNW 10.4 mph - 0.01 in Snow Light Snow
4:18 PM 35.6 °F 26.6 °F 33.8 °F 93% 29.24 in 2.5 mi WNW 13.8 mph - 0.03 in Snow Light Snow
4:31 PM 35.6 °F 27.5 °F 33.8 °F 93% 29.23 in 4.0 mi WNW 11.5 mph - 0.03 in Snow Light Snow
4:56 PM 34.9 °F 25.3 °F 32.9 °F 92% 29.23 in 6.0 mi WNW 15.0 mph - 0.04 in Snow Light Snow
5:44 PM 33.8 °F 25.3 °F 33.8 °F 100% 29.22 in 3.0 mi WNW 11.5 mph - 0.03 in Snow Light Snow
5:56 PM 33.8 °F 26.4 °F 33.8 °F 100% 29.22 in 4.0 mi WNW 9.2 mph - N/A Snow Light Snow
6:56 PM 34.0 °F 25.0 °F 32.0 °F 92% 29.19 in 4.0 mi WNW 12.7 mph - 0.08 in Snow Light Snow
7:42 PM 33.8 °F 26.4 °F 32.0 °F 93% 29.17 in 5.0 mi West 9.2 mph - 0.05 in Snow Light Snow
7:56 PM 32.9 °F 22.8 °F 32.0 °F 96% 29.18 in 5.0 mi West 15.0 mph - 0.05 in Snow Light Snow
8:08 PM 33.8 °F 23.9 °F 32.0 °F 93% 29.17 in 2.0 mi West 15.0 mph - 0.01 in Snow Light Snow
8:22 PM 33.8 °F 24.3 °F 32.0 °F 93% 29.17 in 1.5 mi West 13.8 mph - 0.02 in Snow Light Snow
8:29 PM 33.8 °F 24.8 °F 32.0 °F 93% 29.17 in 2.0 mi West 12.7 mph - 0.02 in Snow Light Snow
8:34 PM 33.8 °F 24.8 °F 32.0 °F 93% 29.17 in 3.0 mi West 12.7 mph - 0.03 in Snow Light Snow
8:56 PM 33.8 °F 25.3 °F 32.0 °F 93% 29.17 in 3.0 mi West 11.5 mph - N/A Snow Light Snow
9:05 PM 33.8 °F 24.3 °F 32.0 °F 93% 29.16 in 1.8 mi WNW 13.8 mph - 0.01 in Snow Light Snow
9:32 PM 33.8 °F 25.8 °F 32.0 °F 93% 29.16 in 2.5 mi West 10.4 mph - 0.02 in Snow Light Snow
9:56 PM 32.9 °F 24.1 °F 32.0 °F 96% 29.17 in 3.0 mi West 11.5 mph - 0.03 in Snow Light Snow
10:00 PM 33.8 °F 24.3 °F 32.0 °F 93% 29.16 in 2.5 mi West 13.8 mph - 0.01 in Snow Light Snow
10:13 PM 33.8 °F 24.3 °F 32.0 °F 93% 29.16 in 1.8 mi WNW 13.8 mph - 0.01 in Snow Light Snow
10:29 PM 33.8 °F 23.2 °F 32.0 °F 93% 29.16 in 2.0 mi West 17.3 mph - 0.02 in Snow Light Snow
10:56 PM 32.9 °F 21.6 °F 32.0 °F 96% 29.16 in 2.0 mi West 18.4 mph - 0.03 in Snow Light Snow
11:08 PM 33.8 °F 21.9 °F 32.0 °F 93% 29.16 in 3.0 mi West 21.9 mph 26.5 mph 0.00 in Snow Light Snow
11:23 PM 33.8 °F 22.8 °F 32.0 °F 93% 29.16 in 2.0 mi West 18.4 mph - 0.00 in Snow Light Snow
11:36 PM 33.8 °F 22.8 °F 32.0 °F 93% 29.16 in 1.8 mi West 18.4 mph - 0.00 in Snow Light Snow
11:56 PM 33.8 °F 23.2 °F 32.0 °F 93% 29.16 in 1.8 mi West 17.3 mph - N/A Snow Light Snow